Regional Weather Roundup
Issued by NWS

Home | Current Version | Previous Version | Graphics & Text | Print | Product List | Glossary On
Versions: 1 2 3 4 5 6 7 8 9 10 11 12 13 14 15 16 17 18 19 20 21 22 23 24 25 26 27 28 29 30 31 32 33 34 35 36 37 38 39 40 41 42 43 44 45 46 47 48 49 50
000
ASUS43 KIND 220000
RWRIN

WEATHER ROUNDUP FOR INDIANA
NATIONAL WEATHER SERVICE INDIANAPOLIS IN
800 PM EDT FRI JUL 21 2017

NOTE: "FAIR" INDICATES FEW OR NO CLOUDS BELOW 12,000 FEET WITH NO
SIGNIFICANT WEATHER AND/OR OBSTRUCTIONS TO VISIBILITY.

* - STATION DOES NOT REPORT WEATHER SUCH AS PRECIPITATION OR FOG.

+ - STATION NOT QUALITY CONTROLLED BY THE NATIONAL WEATHER SERVICE.
    USE DATA WITH CAUTION...ESPECIALLY DEWPOINT AND RELATIVE
    HUMIDITY OBSERVATIONS.

INZ001>003-010>013-019-020-220100-
NORTHWEST INDIANA

CITY           SKY/WX    TMP DP  RH WIND       PRES   REMARKS
GARY /AIRPORT/ PTSUNNY   82  72  69 E5        29.92S
MICHIGAN CITY+ LGT RAIN  77  73  88 CALM      29.94S
MONTICELLO +   SUNNY     84  74  72 SE3       29.91F
6HR MIN TEMP:  74; 6HR MAX TEMP:  85;

RENSSELAER +   SUNNY     84  73  70 SE6       29.90F

$$

LMZ046-743>745-220100-
SOUTHERN LAKE MICHIGAN

STATION/POSITION TIME  TEMP    WIND        PRES    WAVE
                       AIR SEA DIR/SP/G            HT
                 (UTC) (F)     (DEG/KT/KT) (MB)    (FT)
BURNS HARBOR     2340   77      70/  9/ 11 1013.5S
MICHIGAN CITY    2330   76      40/ 13/ 15   N/A
5NW MICH CITY    2350   76 76   60/ 10/ 12   N/A     1

$$

INZ004-005-014>016-021>024-220100-
NORTH CENTRAL INDIANA

CITY           SKY/WX    TMP DP  RH WIND       PRES   REMARKS
ELKHART        PTSUNNY   82  68  61 CALM      29.94F
GOSHEN         SUNNY     82  67  60 S3        29.93F
6HR MIN TEMP:  82; 6HR MAX TEMP:  87;

SOUTH BEND     CLOUDY    81  71  71 NW6       29.95R
6HR MIN TEMP:  81; 6HR MAX TEMP:  87;

WARSAW +       MOSUNNY   81  68  65 CALM      29.94S

$$

INZ006>009-017-018-025>027-220100-
NORTHEAST INDIANA

CITY           SKY/WX    TMP DP  RH WIND       PRES   REMARKS
FORT WAYNE     CLOUDY    82  69  64 SW7       29.94F
6HR MIN TEMP:  82; 6HR MAX TEMP:  88;

KENDALLVILLE + SUNNY     81  71  71 W6        29.96S

$$

INZ028-029-035-036-043>045-051>053-220100-
WEST CENTRAL INDIANA

CITY           SKY/WX    TMP DP  RH WIND       PRES   REMARKS
LAFAYETTE      SUNNY     83  76  79 SE5       29.90F
6HR MIN TEMP:  82; 6HR MAX TEMP:  87;

TERRE HAUTE    CLOUDY    86  79  79 S3        29.91S HX  99
6HR MIN TEMP:  84; 6HR MAX TEMP:  94; 6HR PCP:  0.04;


$$

INZ030>032-037>040-046>048-054>057-064-065-220100-
CENTRAL INDIANA

CITY           SKY/WX    TMP DP  RH WIND       PRES   REMARKS
COLUMBUS       PTSUNNY   82  77  83 NE7       29.93F
FRANKFORT +    CLOUDY    86  78  77 SE3       29.94F HX  98
6HR MIN TEMP:  84; 6HR MAX TEMP:  88;

GREENWOOD *+   PTSUNNY   86  72  62 E6        29.95S
INDIANAPOLIS   CLOUDY    87  74  64 SE7       29.92F HX  95
6HR MIN TEMP:  85; 6HR MAX TEMP:  91;

-EAGLE CREEK   PTSUNNY   86  73  65 E7        29.93F
6HR MIN TEMP:  86; 6HR MAX TEMP:  90;

KOKOMO +       SUNNY     82  76  81 SE6       29.94F
6HR MIN TEMP:  74; 6HR MAX TEMP:  84; 6HR PCP:  0.11;

MT COMFORT *+  CLOUDY    82  73  74 E5        29.96F
SHELBYVILLE    CLOUDY    84  75  74 E5        29.94F
6HR MIN TEMP:  84; 6HR MAX TEMP:  90;


$$

INZ033-034-041-042-049-050-058-059-220100-
EAST CENTRAL INDIANA

CITY           SKY/WX    TMP DP  RH WIND       PRES   REMARKS
MUNCIE         MOSUNNY   84  74  71 SE5       29.95F
6HR MIN TEMP:  81; 6HR MAX TEMP:  86;

RICHMOND +     CLOUDY    77  73  88 E3        29.99F

$$

INZ060-061-067>069-081>083-085>088-220100-
SOUTHWEST INDIANA

CITY           SKY/WX    TMP DP  RH WIND       PRES   REMARKS
EVANSVILLE     SUNNY     93  72  50 SW10      29.91S HX 101
6HR MIN TEMP:  93; 6HR MAX TEMP:  98;

HUNTINGBURG *+ SUNNY     90  78  68 S6        29.92S HX 104
6HR MIN TEMP:  90; 6HR MAX TEMP:  96;


$$

INZ062-063-066-070>080-084-089>092-220100-
SOUTH CENTRAL AND SOUTHEAST INDIANA

CITY           SKY/WX    TMP DP  RH WIND       PRES   REMARKS
BLOOMINGTON    CLOUDY    90  76  63 S3        29.93S HX 101
6HR MIN TEMP:  90; 6HR MAX TEMP:  94;

MADISON *+     SUNNY     90  72  55 CALM      29.96F HX  96
SEYMOUR +      SUNNY     90  77  66 S5        29.92F HX 102

$$





USA.gov is the U.S. government's official web portal to all federal, state and local government web resources and services.